To NAV CANADA Home Page Login to a new session Search on AWWS site Feedback and Comments Disclaimer Vers la page française équivalente Tips FAQ What's new on the site To the Forecasts and Observations / NOTAM section To "File a Flight Plan" website Publications and other links Update of the User's profile FIC Telephone Numbers My Weather Data Folder Route Weather Data Regional Weather Data Local Weather Data To the Forecasts and Observations / NOTAM section
Request Generated 05/04/2016 at 01:54:28 UTC . Weather information available at that time is displayed.

METAR/TAF

KINDERSLEY/KINDERSLEY REGIONAL/SK    

METAR CYKY 040100Z 19009G18KT 15SM SKC 28/01 A2994 RMK SLP135 DENSITY
ALT 4200FT=
METAR CYKY 040000Z 20009G17KT 15SM SKC 28/01 A2995 RMK SLP142 DENSITY
ALT 4200FT=
METAR CYKY 032300Z 21014KT 160V260 15SM FEW260 29/01 A2996 RMK CI1
SLP144 DENSITY ALT 4300FT=

CYKY - No TAF is issued for this station

Your time UTC time
Weather data provided by Environment Canada and NAV CANADA